Wind_Speed
74 72 68 65 62 61 62 63 64 64 60 56 55 54 53 53 53 53 52 51 51 51 54 55 54 53 50 48 46 45 45 44 44 46 49 51 52 54 54 54 51 47 43 40 40 42 44 45 45 47 48 49 49 49 49 50 51 53 54 53 49 42 34 30 33 31 29 31 33 36 39 41 42 42 43 41 39 38 32 26 25 25 26 25 23 23
73 70 66 65 64 65 65 65 65 62 58 55 54 54 53 53 54 53 52 51 50 51 53 55 55 54 51 47 44 43 42 41 42 45 50 52 55 55 55 55 52 48 44 41 41 42 43 45 44 45 46 47 48 48 49 49 51 52 52 52 50 44 35 32 35 33 29 32 36 39 40 43 46 46 44 41 39 36 29 24 23 23 23 23 23 24
69 66 66 67 67 66 65 65 63 60 57 55 54 53 53 54 53 52 51 50 50 51 53 55 56 54 51 48 45 42 41 40 42 44 47 48 51 52 52 52 50 48 45 43 42 42 43 44 44 44 44 46 48 48 49 49 50 51 51 52 50 45 38 38 40 36 33 34 34 34 35 39 43 43 41 39 35 30 25 24 27 29 28 26 24 23
66 66 70 71 69 66 64 64 62 58 56 53 53 54 54 54 53 52 50 49 50 51 52 53 53 53 50 47 44 43 43 44 44 44 43 45 47 49 50 49 49 48 46 45 45 44 43 43 44 44 44 46 47 48 49 49 50 50 51 53 51 47 44 43 42 37 35 35 31 30 32 36 40 41 39 34 30 27 24 28 33 35 33 29 24 23
69 72 73 71 67 65 64 64 61 57 55 53 54 54 55 54 52 51 50 49 49 50 51 51 51 51 50 47 44 43 44 46 46 46 46 48 50 51 50 48 48 48 47 47 47 47 44 44 45 45 44 46 47 48 49 49 50 50 52 54 53 50 47 44 43 38 35 36 34 33 34 35 38 41 39 33 29 29 31 34 36 35 33 30 25 26
73 74 71 67 65 63 63 62 59 56 55 53 54 55 55 54 52 50 49 49 48 49 50 51 50 48 46 46 44 41 41 44 45 47 49 50 50 50 49 48 48 49 48 48 48 48 46 45 45 45 44 45 46 48 49 50 51 51 53 55 55 54 51 47 46 40 35 39 42 42 41 40 40 40 38 35 32 33 34 35 33 31 31 30 28 28
73 70 67 66 64 63 62 60 58 56 54 53 54 56 55 53 51 50 49 48 48 49 50 49 47 44 42 42 43 40 40 41 42 44 45 47 48 48 48 48 49 48 48 49 48 48 47 46 46 45 44 45 46 48 50 51 52 52 54 55 56 58 56 52 51 45 38 40 45 48 47 45 43 41 41 40 38 36 36 35 34 31 30 30 30 30
69 68 66 65 63 61 60 58 56 54 52 52 54 55 55 53 51 50 49 47 48 48 47 46 44 42 39 40 42 41 39 39 39 40 41 43 45 46 47 48 48 48 48 48 48 49 49 48 47 46 45 46 47 49 51 53 54 54 54 55 57 61 62 59 58 56 48 42 44 48 47 45 42 42 44 45 42 39 38 37 36 34 31 31 31 31
68 67 66 63 61 59 58 58 56 54 53 54 56 56 55 53 52 50 48 46 46 46 45 44 43 42 41 40 41 41 39 39 39 39 41 43 45 47 48 49 49 49 49 49 50 51 51 50 50 48 47 48 49 51 52 54 55 54 55 56 58 63 67 66 65 64 58 50 46 47 48 47 46 42 40 42 42 40 38 38 37 36 33 32 32 32
68 68 66 63 61 60 60 59 57 55 54 55 56 56 54 53 52 49 46 45 45 45 45 44 44 42 41 39 39 39 39 40 40 41 43 45 47 49 50 51 52 53 53 53 53 53 53 52 52 51 50 50 52 53 52 53 54 55 56 59 60 63 68 71 69 67 65 57 49 47 46 46 48 47 41 42 43 39 36 37 36 35 34 33 33 33
67 67 63 61 60 60 60 59 56 55 55 56 56 55 54 53 50 46 44 44 44 45 46 45 43 41 39 37 36 37 39 40 40 41 44 46 47 48 49 50 51 52 53 53 53 52 52 52 52 54 54 53 54 54 53 53 55 56 57 60 62 64 69 73 73 70 68 63 55 51 49 46 48 51 49 48 46 39 35 35 35 34 33 33 33 34
65 63 60 59 59 59 58 56 55 54 54 54 54 54 54 51 46 44 44 45 45 46 45 44 42 40 37 34 34 37 39 39 38 38 40 43 43 44 45 46 47 48 50 52 52 50 48 49 49 52 55 54 54 55 55 54 55 57 59 60 62 65 69 74 76 74 71 66 60 56 55 54 53 55 55 54 50 45 40 38 38 37 36 34 33 35
62 60 59 59 59 58 57 54 53 52 52 52 52 53 51 47 45 45 45 45 45 45 44 44 43 40 35 33 34 37 39 40 39 37 39 41 40 41 42 43 44 45 47 50 52 49 46 46 47 50 53 53 53 55 56 55 55 57 59 60 61 63 68 74 78 77 73 69 64 59 57 57 55 52 52 55 56 53 49 45 43 42 40 39 37 36
61 60 59 59 58 57 55 54 53 53 53 54 54 53 50 48 47 46 46 46 45 45 46 46 43 38 34 33 36 37 39 41 40 37 39 41 41 41 43 43 44 44 45 48 50 49 48 47 47 49 51 51 52 54 56 55 55 57 58 59 59 60 64 71 77 79 76 71 67 63 58 56 53 47 45 51 55 56 55 53 50 48 45 43 41 40
60 59 59 59 58 56 55 55 55 56 57 57 56 53 51 49 48 46 46 46 46 46 46 44 41 38 35 35 37 36 37 40 39 37 39 41 41 42 44 45 46 47 46 47 48 48 48 48 47 48 50 50 51 52 53 53 53 54 57 58 57 57 58 63 70 76 78 74 69 66 61 56 53 49 46 49 52 54 55 55 53 51 49 46 45 45
60 59 59 58 57 56 56 57 58 59 59 57 54 51 49 48 47 46 46 46 47 47 46 43 41 39 37 37 37 36 36 38 40 40 42 43 43 44 45 47 48 48 45 44 44 45 45 46 46 47 48 49 49 47 47 50 50 49 55 58 55 52 53 55 60 67 73 74 70 65 63 60 55 52 52 53 54 53 53 52 50 49 49 49 48 48
61 60 60 59 57 57 58 60 61 61 59 55 52 51 50 49 49 48 47 47 48 48 45 42 41 40 39 38 37 37 38 39 41 43 44 45 46 46 47 47 47 46 43 42 43 42 42 43 44 46 47 49 49 47 46 48 46 40 47 57 55 49 50 50 51 54 61 67 67 64 63 61 59 59 60 60 58 55 52 49 48 47 48 49 49 50
61 61 61 59 59 59 60 61 60 58 55 52 52 52 52 50 49 48 47 47 48 46 44 42 41 41 40 39 37 37 39 41 43 45 46 46 47 47 47 46 46 45 43 41 41 41 41 42 43 44 48 48 48 51 53 52 49 38 37 47 50 47 47 46 43 43 48 57 62 63 64 61 58 59 63 65 61 57 53 50 48 47 47 48 49 52
62 62 60 59 60 61 61 59 57 54 52 51 53 53 51 49 48 47 47 47 47 46 44 43 42 42 41 40 38 38 40 43 45 46 47 48 48 48 47 45 45 45 43 40 39 38 40 42 43 43 48 49 48 53 56 57 56 48 41 41 42 43 44 41 37 36 41 49 56 60 63 64 61 58 60 63 62 58 54 52 50 49 49 48 49 51
62 61 60 60 61 60 58 56 54 52 51 52 54 53 50 49 48 47 47 47 47 46 45 43 43 42 42 41 40 40 41 44 45 46 48 49 49 49 47 45 44 43 42 38 36 36 38 42 43 43 46 49 49 53 56 56 54 51 48 46 43 41 39 34 33 36 41 46 50 55 59 62 64 62 59 58 58 57 55 53 52 51 52 51 50 50
60 60 59 60 59 57 55 54 53 53 53 54 54 53 51 50 49 48 48 48 47 46 44 44 43 43 44 43 42 42 43 45 46 47 49 50 50 48 46 44 43 43 41 36 34 35 37 41 42 42 45 47 49 53 56 53 47 45 47 47 45 42 36 31 33 38 42 41 41 47 53 57 59 60 58 56 55 54 54 53 53 53 53 53 51 51
57 57 57 58 57 56 55 55 54 54 55 55 55 53 52 50 49 48 48 47 47 46 45 44 44 45 46 45 44 44 45 45 46 49 51 50 48 46 44 42 41 41 39 35 34 34 37 41 42 42 44 46 48 52 55 54 48 43 41 40 42 44 41 36 36 41 42 39 35 37 43 49 51 51 50 51 52 52 53 53 52 53 53 52 51 50
56 56 56 57 57 55 55 55 55 55 54 54 54 53 51 50 48 47 47 48 48 47 46 45 45 46 46 47 46 46 45 46 48 51 51 48 45 44 42 41 41 40 38 35 34 34 37 40 41 41 42 45 48 50 52 54 52 45 38 36 37 43 46 44 41 44 44 40 35 33 36 40 43 45 46 47 48 49 51 53 53 54 54 52 51 50
57 56 56 57 56 55 55 56 56 55 54 53 53 52 51 50 48 48 49 50 49 48 47 46 46 47 47 47 46 46 47 49 50 50 48 46 44 43 42 41 40 38 36 34 33 34 37 39 40 41 41 43 47 49 50 53 55 49 42 40 38 38 44 46 44 45 45 39 33 33 36 38 39 41 43 43 43 43 46 50 53 55 55 54 53 52
58 58 58 58 56 54 55 55 55 54 53 53 53 52 52 51 50 50 51 51 49 48 48 47 47 47 46 46 46 47 50 50 49 48 46 45 44 42 42 40 39 38 36 34 34 35 37 39 39 40 41 42 45 49 49 52 57 55 47 46 45 41 40 43 45 45 43 39 35 35 37 37 36 37 35 33 33 35 38 42 46 50 53 53 53 52
57 58 58 58 56 55 56 56 56 56 55 55 54 54 54 53 53 52 52 51 49 48 48 48 48 47 46 47 48 50 50 49 47 46 44 43 42 41 41 39 38 38 36 34 34 35 37 40 39 39 40 41 44 47 49 50 57 59 54 50 50 48 44 43 45 45 43 42 40 36 37 36 34 34 33 32 32 32 32 33 37 43 47 49 50 50
57 57 58 58 57 57 57 58 58 58 58 58 57 57 56 55 54 54 52 51 50 49 49 49 48 48 48 49 50 50 48 47 46 44 42 41 41 41 41 38 37 38 37 35 35 35 37 40 40 39 38 39 42 45 47 49 53 57 56 54 53 52 51 49 48 47 45 45 42 37 37 38 37 37 36 35 36 36 35 36 39 42 45 47 48 49
57 57 58 58 58 58 58 58 58 58 58 58 58 56 55 54 54 53 52 51 51 51 50 49 49 50 50 51 49 47 45 44 43 42 40 40 40 41 40 38 38 38 38 36 35 35 37 40 41 40 38 38 40 42 45 46 50 53 53 53 54 53 53 52 53 51 49 47 44 41 40 42 42 40 36 34 37 38 39 41 43 44 47 47 45 46
58 58 58 58 58 58 57 58 58 58 57 57 56 55 54 54 53 52 52 51 51 51 50 50 50 50 49 48 46 43 42 42 42 40 39 39 40 40 38 37 38 39 39 38 37 36 38 40 41 41 40 39 39 41 43 43 45 48 49 50 52 53 52 51 51 52 50 47 45 45 45 45 45 42 36 34 36 37 39 41 41 43 48 48 45 45
58 58 58 59 58 58 58 58 58 58 57 56 56 55 54 54 54 53 52 52 51 51 51 51 49 47 46 45 43 42 42 41 40 39 38 38 39 38 36 36 38 41 41 39 37 38 38 39 40 41 40 40 39 39 41 42 43 45 46 47 48 50 51 50 49 49 47 44 43 45 46 46 46 44 39 37 37 37 38 39 39 41 47 49 48 48
58 58 58 58 58 59 59 59 59 58 57 56 56 55 55 54 54 53 52 52 52 52 52 50 47 45 45 44 43 42 42 41 39 38 37 37 37 36 35 35 37 40 42 41 39 39 39 40 40 41 41 41 40 40 40 41 42 44 45 46 46 48 49 49 49 48 46 43 42 43 45 46 45 43 42 40 39 39 39 39 39 42 45 48 49 49
59 59 59 59 59 59 59 59 59 59 58 57 56 55 55 54 54 53 53 53 52 52 51 49 47 45 45 44 43 43 42 41 40 38 36 35 36 35 34 34 36 39 42 43 42 41 41 41 41 42 43 42 42 41 41 41 42 43 45 45 46 47 48 49 49 49 46 43 42 43 43 43 42 41 41 41 40 41 41 41 42 43 44 46 48 48
58 59 59 59 59 59 59 59 60 59 59 58 57 56 56 56 55 55 55 54 53 52 51 49 47 46 46 45 44 44 43 42 40 38 35 35 35 34 34 35 36 38 42 45 45 44 43 44 43 43 44 44 43 43 43 42 41 42 44 46 46 47 48 49 49 49 47 44 43 43 41 41 40 39 39 41 39 38 38 41 43 44 44 45 47 48
59 59 59 59 59 60 60 60 61 61 60 59 58 57 57 57 57 57 56 55 54 53 53 51 49 48 48 47 46 44 43 42 40 38 36 34 34 33 33 34 36 39 43 45 47 47 46 46 46 45 45 46 45 45 44 44 43 43 43 45 47 48 49 50 50 50 49 46 44 44 42 40 39 38 39 40 40 37 36 40 44 46 46 47 48 49
62 61 61 61 61 61 61 61 61 61 61 60 59 59 59 59 59 58 58 57 57 56 55 54 53 52 51 50 47 45 44 41 39 37 36 35 34 33 32 33 34 38 42 46 48 49 49 49 48 47 47 47 47 47 46 45 45 44 44 45 47 48 50 51 51 51 50 47 46 45 44 40 38 38 39 40 41 39 38 41 45 47 48 50 50 51
64 64 64 64 63 63 63 62 62 62 61 61 62 61 61 61 60 60 60 60 59 59 58 57 57 56 54 53 49 45 43 41 38 37 36 35 35 34 32 32 32 34 39 45 49 50 51 51 51 50 49 48 48 48 48 48 47 46 46 46 47 49 51 52 53 53 52 49 47 46 45 43 41 41 41 41 42 41 41 44 47 48 49 51 51 52
64 65 65 65 65 64 63 63 63 63 63 63 63 63 62 62 62 62 62 61 61 61 60 60 59 58 56 53 49 45 43 40 38 37 36 36 36 34 32 32 32 32 35 41 47 51 52 53 53 53 52 51 50 50 50 50 49 48 48 47 48 50 52 54 54 55 55 52 49 49 48 47 47 48 46 43 42 42 43 46 49 50 52 53 53 54
62 63 63 63 63 62 62 63 64 64 64 64 64 65 65 64 64 63 62 61 61 61 61 60 59 57 55 52 49 46 43 40 38 37 38 37 37 35 33 32 33 33 34 37 42 47 51 53 55 56 55 55 53 52 52 52 52 51 50 49 49 50 52 55 56 57 58 56 54 53 53 51 52 52 50 46 44 44 44 45 48 51 53 54 54 55
56 57 58 58 58 58 59 61 64 65 65 65 66 67 67 65 63 61 59 59 60 60 59 58 57 56 53 51 49 46 43 41 39 39 40 39 37 36 35 34 34 34 35 37 39 43 47 52 55 57 57 57 57 56 55 55 54 54 53 52 51 52 53 54 56 58 60 60 59 57 56 56 56 54 51 49 49 49 47 47 49 51 53 54 53 55
51 53 54 53 53 54 55 58 61 62 63 63 64 64 64 63 60 57 55 55 56 55 54 54 54 53 52 50 49 47 44 42 41 41 42 41 39 38 37 36 35 35 36 38 41 42 44 48 52 55 57 58 59 59 58 58 57 56 56 55 54 54 54 55 56 58 60 62 63 62 60 60 59 57 55 53 52 52 51 50 50 52 54 54 52 51
49 51 51 51 51 51 52 54 56 58 59 58 58 59 59 58 56 53 52 52 52 51 51 51 51 51 51 50 49 47 44 43 42 42 43 43 42 41 39 38 38 36 36 39 42 44 45 47 49 52 55 57 58 59 60 60 59 59 59 58 57 57 56 56 57 58 60 61 64 64 64 63 62 61 59 56 53 52 51 51 53 55 56 56 54 51
50 51 51 51 51 51 52 53 54 55 56 56 56 56 56 55 54 53 53 53 52 51 50 50 50 50 50 49 48 47 45 43 42 43 44 44 44 43 42 41 40 40 39 39 41 45 48 49 49 50 52 54 57 58 59 60 60 61 61 61 61 60 59 58 58 59 60 61 63 65 66 65 64 64 63 61 58 54 50 50 54 57 57 58 57 54
51 51 51 52 53 54 54 54 55 57 58 58 58 57 56 55 54 54 53 53 52 51 50 49 48 48 48 48 47 46 44 43 43 44 45 45 45 46 45 44 43 43 43 42 41 43 47 51 52 51 51 52 54 56 57 58 59 61 61 62 63 63 62 61 61 60 60 61 62 64 66 67 67 66 66 65 64 62 58 57 58 59 58 59 59 57
50 51 52 53 53 54 55 56 57 58 59 59 58 57 56 54 53 52 51 51 50 50 49 48 46 46 46 46 46 46 45 44 45 45 46 46 46 47 48 47 46 46 46 46 44 43 44 49 53 54 54 53 53 54 55 55 56 57 59 61 63 64 64 64 63 63 62 62 62 62 64 66 68 68 68 68 68 68 67 66 66 66 66 66 66 65
49 50 51 52 52 53 54 55 56 56 56 55 55 54 52 51 50 49 48 47 47 48 47 46 45 45 45 45 45 45 45 46 46 47 47 48 48 49 49 50 49 49 49 50 48 46 45 47 51 54 56 56 56 57 57 56 56 55 56 59 61 64 65 65 65 64 64 64 63 63 64 65 67 68 70 71 71 70 71 71 71 70 70 71 72 72
48 48 48 49 49 50 51 51 51 51 51 51 50 49 48 46 45 44 44 43 43 44 44 44 44 44 44 44 45 45 46 46 47 49 50 50 51 52 52 52 53 53 53 53 52 51 49 49 50 53 56 58 59 60 59 59 58 57 57 59 62 64 65 66 66 66 66 66 66 66 65 65 67 68 69 71 72 73 73 73 73 73 73 73 74 74
44 45 45 45 46 46 47 48 48 48 47 47 47 46 45 43 42 42 42 42 42 42 43 44 44 44 44 45 46 46 47 48 49 50 51 53 54 54 55 56 56 56 56 56 56 55 53 52 52 53 56 58 60 61 60 60 59 58 58 60 62 64 64 66 67 67 67 67 68 68 68 67 67 68 69 70 72 73 74 74 75 75 75 76 76 76
43 43 44 44 44 44 45 46 47 47 47 47 46 45 44 42 42 42 43 43 43 44 45 45 45 45 46 46 47 48 49 50 51 52 53 54 55 57 58 59 59 59 59 59 59 58 57 56 54 54 55 58 59 60 60 59 58 58 58 60 62 64 64 65 66 68 68 68 68 69 70 70 69 69 70 71 72 72 73 74 75 76 77 77 78 78
42 43 43 43 43 43 44 46 47 47 48 48 47 46 45 45 45 45 45 45 45 45 46 46 47 47 48 48 49 50 51 52 53 54 55 56 58 59 60 61 61 62 62 62 62 61 59 58 56 55 56 57 59 60 60 60 59 59 59 61 62 63 62 63 64 66 68 69 69 69 70 71 72 72 72 73 73 73 73 74 76 77 78 79 79 79
41 42 42 42 42 42 43 45 47 47 48 48 47 47 47 47 47 47 47 47 47 47 47 48 48 49 50 50 51 52 53 54 55 56 57 59 60 61 62 63 64 64 64 63 62 61 59 58 57 56 57 58 59 60 61 61 61 61 62 62 62 62 61 61 62 64 66 68 69 70 70 71 72 73 74 75 75 75 75 76 77 79 81 81 82 82
40 41 42 42 42 42 44 45 46 47 48 48 48 48 49 48 48 48 49 49 49 49 49 50 51 51 52 53 54 55 56 56 57 58 60 61 63 64 65 65 65 63 62 60 59 58 57 57 57 57 58 59 60 61 62 62 63 63 64 64 63 63 62 62 62 62 64 66 68 69 71 71 72 72 73 75 76 77 77 77 78 81 83 84 85 85
Wind_Direction
227 229 231 232 233 233 233 233 234 238 242 247 252 256 259 262 264 266 267 268 270 273 276 279 280 280 279 275 272 269 267 265 262 261 260 261 262 265 267 270 268 265 262 260 258 257 254 250 247 244 243 241 240 239 238 236 234 233 234 235 236 239 240 244 251 256 262 265 263 261 261 257 253 260 268 272 276 282 290 295 291 294 294 283 267 255
226 228 229 230 231 231 231 233 236 240 243 247 251 255 258 261 263 264 266 267 269 272 275 279 280 280 277 272 269 266 265 263 261 258 256 257 259 263 266 269 270 268 265 261 259 257 255 252 248 245 244 243 241 239 238 236 234 233 233 234 236 236 234 236 242 245 249 255 260 264 263 257 256 263 267 268 272 278 282 279 272 277 283 277 264 256
225 227 228 228 229 230 232 235 238 241 244 247 251 254 256 259 261 262 263 265 268 272 275 279 281 281 278 274 272 270 268 263 259 257 256 257 259 262 265 267 269 269 266 262 259 256 254 253 250 246 243 242 241 240 238 236 234 233 232 231 233 232 227 229 235 239 240 245 253 256 255 255 257 262 265 265 268 272 271 265 267 271 274 277 268 256
222 223 225 226 227 230 232 236 238 240 243 246 249 252 255 257 258 259 261 264 268 273 276 280 282 281 278 276 275 272 269 265 262 261 260 260 261 263 265 266 266 266 264 262 259 256 252 251 250 245 242 241 240 239 238 237 235 233 231 229 229 226 223 227 232 237 242 245 249 250 249 252 255 257 261 262 265 268 265 266 273 273 270 276 268 247
219 221 223 225 227 230 232 235 238 240 242 245 248 251 253 255 256 257 260 264 269 273 276 279 279 278 278 277 274 270 268 266 265 264 264 263 263 265 266 266 265 265 264 263 260 257 253 251 249 245 242 240 239 238 236 236 234 233 230 228 227 221 219 225 228 231 241 245 248 253 254 253 253 253 254 255 262 273 275 275 277 274 269 273 267 247
219 222 224 226 228 230 232 235 237 239 241 244 247 250 252 253 253 256 260 265 269 272 275 278 278 277 277 276 273 270 267 264 263 263 264 265 265 266 266 265 264 264 264 263 261 260 257 254 251 247 244 242 240 238 236 235 233 232 230 228 224 218 215 219 223 227 238 245 247 252 256 257 256 254 251 253 264 277 280 277 276 276 272 270 266 253
220 222 224 225 227 229 232 234 236 238 241 243 246 249 250 250 252 256 261 264 268 272 275 276 275 274 274 273 270 267 263 262 262 263 264 265 266 266 264 263 262 261 261 261 261 261 259 256 253 250 247 244 241 239 237 235 233 231 230 228 223 216 212 215 220 226 235 244 248 250 255 259 259 257 255 258 268 275 275 275 277 278 274 270 267 262
220 221 223 225 227 229 231 234 235 236 238 241 245 247 247 249 252 256 261 264 268 272 274 273 272 271 268 264 265 266 265 264 262 261 261 262 262 262 261 260 260 259 259 259 259 260 259 257 254 250 247 245 242 239 238 236 234 231 228 227 223 217 212 214 220 227 233 240 245 247 252 256 257 258 259 261 267 270 269 269 272 272 271 271 270 271
218 220 221 222 225 227 229 232 233 234 236 238 242 244 246 249 253 257 261 264 268 270 271 270 270 268 264 261 263 266 266 265 263 262 261 260 260 260 261 261 261 260 259 258 258 258 258 257 255 251 247 245 244 240 238 237 235 232 228 224 223 218 213 214 220 227 232 236 239 242 247 251 253 257 259 260 264 266 263 264 266 267 267 270 271 272
216 219 220 222 223 225 227 229 231 233 235 238 241 244 246 249 254 258 261 263 266 268 268 268 267 265 264 264 264 264 263 263 263 263 263 263 263 263 264 264 264 264 263 261 260 259 258 257 256 253 248 245 244 241 238 238 237 235 230 225 223 220 215 215 220 226 230 233 234 236 243 249 251 253 255 258 261 259 257 258 260 262 264 265 268 270
217 219 220 222 224 225 228 230 232 234 236 238 241 244 247 251 255 258 259 261 264 266 267 267 265 264 264 264 263 262 262 261 260 262 263 264 265 265 266 266 267 267 267 265 263 261 259 257 255 253 250 245 244 242 239 238 238 237 234 229 226 223 218 216 220 225 229 231 231 231 235 243 249 251 252 255 255 254 254 256 256 258 262 263 265 267
218 220 220 222 224 226 228 231 233 235 237 240 243 246 248 252 255 255 256 260 263 266 266 265 263 263 264 265 263 261 261 261 261 261 262 264 266 268 268 268 268 269 270 269 267 263 260 257 253 251 249 245 243 242 240 238 238 238 237 233 228 226 222 218 220 225 229 230 230 230 232 238 246 251 253 253 251 251 255 257 257 258 261 263 264 264
217 218 220 221 223 225 227 229 232 234 236 239 242 245 248 250 251 252 256 260 263 264 263 262 262 264 265 264 262 262 263 263 262 262 262 264 267 269 269 269 270 271 272 272 270 267 263 257 252 248 246 243 240 240 239 237 237 237 238 237 233 229 226 222 220 225 230 231 229 230 232 235 243 250 255 255 253 254 256 257 258 259 260 263 264 262
216 217 219 221 223 225 227 228 230 232 233 236 239 242 246 247 249 252 256 259 261 262 262 262 265 266 265 264 262 263 265 266 265 264 264 265 266 268 270 271 272 272 273 274 272 269 264 258 251 247 244 239 236 235 236 235 235 236 237 238 237 233 230 228 224 224 230 232 230 230 232 234 238 244 253 258 257 255 257 258 259 260 261 263 263 261
214 216 218 220 221 223 225 226 228 230 232 234 237 241 244 247 250 253 255 258 261 262 263 264 265 265 264 262 263 265 267 271 272 270 268 269 269 270 272 274 274 274 273 273 272 270 266 259 251 245 241 236 233 232 234 232 231 235 236 236 238 237 235 234 230 227 229 234 234 231 232 234 235 239 247 254 255 255 256 259 260 260 260 262 262 261
214 215 217 219 220 221 223 225 227 229 232 235 238 242 245 248 251 252 254 258 261 262 263 263 264 264 263 262 265 267 269 272 274 274 274 275 276 275 274 275 276 275 274 272 270 269 266 259 250 243 237 233 229 227 232 231 227 232 236 234 236 239 238 238 237 233 232 234 236 235 234 235 234 235 240 247 251 253 255 257 258 258 259 260 261 260
214 216 217 218 219 221 222 224 226 229 232 235 239 242 244 247 249 251 255 259 262 264 264 264 263 263 263 264 267 269 271 273 275 277 278 279 280 279 277 277 276 276 275 275 272 267 263 257 246 239 234 229 223 219 223 225 222 230 239 235 234 238 240 240 242 241 239 237 237 237 236 236 236 235 237 242 247 250 253 255 256 257 258 259 261 259
213 215 217 219 220 221 222 225 228 232 235 238 241 243 245 248 250 253 257 260 263 264 263 263 262 263 264 266 269 270 272 275 277 278 280 282 283 282 280 278 277 277 276 277 273 264 258 252 243 236 231 226 221 217 218 219 216 222 234 234 236 240 241 242 245 247 247 241 237 236 235 235 237 239 239 241 244 247 250 253 255 257 258 259 259 259
214 216 217 218 221 223 224 227 230 233 236 239 242 244 247 248 250 253 257 260 262 262 262 262 263 265 267 269 270 270 271 274 275 278 281 284 285 283 282 280 278 277 277 276 271 260 253 249 241 233 229 226 221 218 219 218 217 220 225 227 233 237 237 238 240 243 248 245 241 239 238 236 237 241 243 243 245 247 249 252 254 255 257 257 256 259
217 218 218 219 221 223 225 228 231 233 236 238 241 244 246 247 249 253 256 258 259 261 262 264 266 267 268 269 270 270 271 272 274 277 281 283 284 284 284 283 280 278 277 273 265 256 249 246 241 233 228 227 223 218 218 219 220 223 224 224 225 228 229 231 233 236 241 244 246 245 242 239 239 243 246 246 247 248 249 251 253 255 256 256 255 258
219 219 220 221 222 224 225 228 231 233 235 237 240 243 244 246 249 253 256 259 261 263 264 264 266 267 267 268 269 269 270 271 273 276 279 281 283 284 284 283 280 277 275 267 257 252 247 244 241 234 228 226 222 218 217 217 218 220 222 223 222 220 221 225 229 232 234 238 245 247 244 242 243 246 248 248 249 250 251 252 254 256 256 256 256 258
221 222 222 223 225 225 227 230 232 233 235 238 240 243 244 247 251 255 258 260 262 262 262 263 264 265 266 268 269 268 268 269 271 275 279 280 282 283 282 281 279 274 269 261 252 248 245 242 240 236 229 225 220 218 217 216 215 214 216 220 221 219 218 221 225 229 229 230 235 241 244 244 246 248 249 249 250 251 252 253 253 255 255 256 258 259
220 222 224 226 227 228 230 232 234 235 237 239 241 244 246 249 252 254 256 257 259 260 260 261 262 263 265 266 266 266 266 269 273 276 278 280 280 280 280 280 279 271 263 258 251 245 242 240 239 236 231 226 220 217 217 217 214 212 212 218 222 222 221 222 226 228 227 227 228 231 238 243 247 249 249 249 252 253 253 253 252 253 255 256 257 258
219 221 224 226 228 230 231 233 235 236 238 240 242 244 246 248 250 251 253 254 256 258 259 260 260 261 262 263 263 265 267 271 275 276 278 279 279 279 279 278 275 267 259 255 250 241 238 238 237 236 232 227 221 218 217 216 214 213 214 218 221 222 222 223 226 227 226 226 225 224 227 234 241 247 248 250 255 257 257 256 255 255 256 256 257 257
220 221 223 225 226 228 231 234 236 237 238 240 241 243 245 247 249 250 251 253 255 257 259 259 259 259 260 262 264 267 271 274 275 276 277 279 280 280 280 276 270 262 256 252 247 239 234 234 234 235 233 228 223 220 218 215 214 215 218 221 222 222 222 222 223 224 224 225 225 223 224 229 236 242 244 246 251 256 258 258 258 257 257 256 257 258
221 223 225 226 226 227 229 232 234 236 237 237 238 241 243 245 247 249 250 252 254 256 257 258 258 259 260 263 267 270 273 274 275 276 278 279 280 281 281 275 265 258 253 249 245 238 232 231 231 232 233 231 226 223 220 217 216 217 221 225 226 226 225 222 221 221 223 226 229 226 224 225 228 231 231 231 236 244 249 252 255 257 257 257 258 259
222 224 226 227 227 227 228 230 233 234 236 236 236 238 241 244 247 249 251 253 255 256 257 258 259 261 263 267 269 271 272 273 275 277 278 279 280 282 281 273 261 255 251 245 244 239 233 230 229 229 231 232 230 227 224 221 220 221 224 228 230 231 230 227 224 224 223 226 228 226 222 222 223 225 225 226 232 238 241 244 248 253 257 258 257 258
222 225 227 228 228 229 230 232 234 235 237 239 240 241 243 246 248 251 253 255 256 257 257 258 260 264 267 269 270 271 272 274 276 277 277 278 281 282 280 270 258 253 249 244 242 239 233 230 229 228 229 231 232 231 229 226 225 224 226 228 230 233 234 232 230 228 226 226 227 224 221 221 222 222 223 227 234 238 241 245 248 251 255 256 254 255
221 224 227 229 230 230 231 233 235 236 237 240 242 244 245 247 249 251 253 255 256 256 257 259 262 266 267 267 268 270 272 273 276 277 277 278 282 283 278 267 255 252 249 243 240 237 233 230 228 227 227 228 230 232 232 230 229 228 228 228 229 231 233 233 231 229 227 227 226 224 223 224 224 222 221 226 234 238 243 247 248 249 252 253 252 254
224 225 227 230 231 232 232 233 234 236 237 239 242 244 246 247 249 251 253 254 254 255 258 260 262 263 263 264 267 270 272 273 275 277 277 279 282 281 275 265 255 251 249 245 240 237 233 229 228 226 226 226 228 230 231 231 230 230 230 229 228 228 229 229 228 226 224 224 223 222 222 224 224 223 221 224 231 235 240 245 246 247 250 251 253 257
226 227 229 231 233 234 234 235 236 237 238 239 242 244 246 248 250 252 253 253 254 256 258 260 261 260 260 263 267 269 270 271 274 277 277 278 281 279 273 265 257 252 250 247 242 238 234 230 227 226 225 226 227 227 229 229 229 229 229 228 228 228 227 226 224 222 220 220 220 220 221 223 224 224 223 224 229 232 236 241 244 246 247 250 254 258
227 228 229 231 234 235 236 237 238 239 240 241 242 245 247 249 251 252 253 254 255 257 258 260 260 260 261 264 267 268 268 269 273 276 276 277 280 279 273 267 260 254 251 249 244 240 236 232 229 227 225 225 226 226 226 227 228 229 228 227 227 228 228 225 222 220 217 217 218 218 220 223 224 224 225 225 228 233 237 240 243 244 245 248 252 256
228 229 230 231 233 235 236 238 239 240 241 242 244 246 248 249 251 252 253 254 255 256 257 259 260 261 262 263 265 266 266 268 273 274 273 275 279 280 274 269 264 257 252 249 246 242 238 235 232 230 227 226 226 226 226 227 228 229 229 228 227 228 229 227 224 220 216 214 217 218 217 218 220 223 226 227 227 231 237 241 243 244 245 247 250 254
229 230 232 233 235 236 238 240 241 242 243 244 246 247 249 250 251 252 253 254 255 257 259 261 261 262 263 263 264 265 265 267 271 272 271 273 277 278 274 270 266 260 253 249 248 245 241 238 235 233 231 229 227 227 227 228 228 229 229 230 229 228 228 228 227 223 218 215 216 217 215 215 218 222 225 227 225 226 232 239 242 244 245 247 250 253
231 232 233 235 237 239 240 242 244 246 247 247 248 249 250 251 252 253 254 256 257 259 260 262 262 263 263 263 264 263 263 266 269 268 269 273 276 277 274 269 267 262 254 250 248 247 244 241 238 237 235 233 230 230 229 230 230 230 229 230 231 230 229 228 227 226 221 217 216 216 215 215 217 219 223 226 226 227 230 236 241 244 246 248 250 253
235 236 237 237 239 241 242 244 245 247 248 249 249 249 250 251 252 253 255 257 258 260 261 262 263 264 264 264 264 263 263 265 266 265 267 272 276 277 274 269 267 264 257 251 249 248 247 244 241 239 238 237 235 233 233 232 233 233 231 231 231 232 231 229 228 227 224 219 216 216 216 217 219 221 225 228 231 234 237 239 242 245 247 249 250 252
238 239 239 240 241 242 243 245 246 247 248 249 250 250 250 251 252 253 254 256 258 260 261 262 263 264 263 263 263 262 262 262 263 263 265 269 273 276 276 272 268 265 259 254 251 250 249 247 244 242 241 240 238 237 236 236 235 236 235 233 232 232 233 232 230 230 227 222 219 218 219 221 223 226 229 231 234 241 244 243 244 245 246 248 250 251
239 239 240 240 241 241 242 244 245 246 247 248 250 251 251 252 252 253 254 256 257 259 260 261 262 261 261 260 259 258 258 259 259 260 262 265 269 273 276 275 271 266 262 258 254 253 252 250 248 246 244 242 241 240 239 239 238 238 237 237 235 233 233 233 233 232 230 226 223 223 224 226 228 230 232 236 240 246 250 248 246 246 247 249 251 253
239 240 241 241 241 241 241 242 244 245 246 247 249 250 252 253 253 254 254 255 256 257 258 258 258 258 257 256 256 255 255 254 255 257 259 262 266 269 272 274 275 271 266 262 258 256 255 253 251 249 247 245 244 243 243 241 241 240 239 239 238 236 235 234 234 234 233 230 227 226 228 230 231 232 235 241 246 249 252 251 249 247 248 250 251 253
238 240 241 241 241 241 241 242 243 244 246 247 248 249 251 253 254 254 254 254 254 255 255 256 256 256 255 254 254 254 253 251 252 255 257 260 263 265 267 270 273 274 272 266 262 258 256 254 252 251 250 249 247 246 246 244 243 243 241 241 241 240 238 236 235 235 235 233 230 229 229 232 233 234 238 244 248 250 251 251 248 246 246 247 249 251
238 240 241 241 241 241 241 242 244 245 246 247 248 249 250 252 253 254 254 254 254 254 254 254 254 254 254 253 253 252 251 250 251 253 256 259 262 263 265 267 270 273 274 271 265 260 257 255 253 252 251 250 249 249 248 247 247 246 244 243 242 242 241 239 237 236 236 235 233 231 231 232 234 236 239 244 247 248 248 248 245 243 243 245 245 247
240 241 242 242 243 243 242 243 244 246 247 248 249 249 250 251 253 254 255 255 255 255 254 253 253 252 252 251 251 251 250 249 250 253 255 259 262 263 264 266 269 272 274 273 268 263 259 257 255 253 252 251 251 250 249 249 249 249 248 245 244 243 243 242 240 238 237 237 236 234 233 233 235 237 240 243 244 243 240 239 240 239 240 242 244 245
241 242 242 243 244 244 244 245 245 246 248 249 249 250 251 252 253 254 255 255 255 255 254 252 250 249 249 249 250 251 250 248 250 253 255 258 261 263 264 266 269 271 274 274 271 266 261 258 257 255 254 252 251 250 249 249 249 249 249 247 246 245 244 243 242 241 239 238 238 236 235 234 235 238 240 242 244 242 238 236 237 238 238 239 240 242
242 242 243 243 244 244 245 245 245 246 248 249 250 251 252 253 253 253 253 253 253 252 252 250 247 246 246 247 249 250 251 251 252 254 256 259 261 263 265 266 268 271 273 274 273 270 264 260 258 256 255 253 251 250 250 249 249 249 248 248 246 245 244 244 243 243 241 240 239 238 237 236 237 239 241 242 244 244 243 242 242 244 244 243 242 242
242 242 242 242 243 244 244 245 246 246 247 249 250 251 252 252 251 250 250 249 249 249 248 246 245 244 245 246 248 249 251 254 256 257 259 261 263 264 266 267 268 270 273 274 274 271 268 263 259 256 255 254 253 252 252 252 251 250 250 249 247 245 244 243 243 243 243 241 240 240 239 238 237 239 241 243 244 245 245 245 245 246 246 246 246 246
240 240 240 240 241 241 242 244 245 245 246 247 247 248 248 248 248 248 248 247 247 246 245 244 244 245 246 248 250 252 253 255 257 259 261 263 264 266 267 268 269 270 272 274 274 273 270 266 261 257 254 253 253 253 253 254 253 253 252 252 250 248 245 244 243 242 242 242 241 241 240 239 238 238 240 242 243 244 244 245 245 245 245 245 246 247
237 236 236 237 237 237 238 240 242 243 244 244 245 246 246 246 246 247 247 247 246 246 246 246 246 247 249 251 253 255 256 257 258 259 261 262 264 266 267 267 268 270 272 273 273 273 271 267 263 258 254 252 251 252 252 253 253 254 254 254 253 250 248 246 244 242 242 242 242 241 241 240 239 238 238 239 241 242 243 244 245 245 245 245 245 245
234 234 233 234 234 234 235 236 238 241 242 243 245 246 246 246 246 246 247 247 247 248 248 249 250 251 252 253 255 256 258 259 259 260 261 262 263 264 265 266 268 270 271 273 273 273 271 268 263 259 254 251 250 250 250 251 252 253 254 255 254 252 249 248 246 244 242 242 241 241 241 240 240 239 238 238 239 240 241 242 243 243 244 245 244 244
235 235 234 234 233 233 234 235 236 238 240 243 244 246 246 246 246 247 248 248 249 250 250 251 252 253 254 254 255 256 257 258 259 260 261 262 264 265 266 268 269 270 272 272 272 271 269 266 263 258 254 251 250 249 249 249 250 251 252 253 254 253 251 249 248 246 244 242 241 241 241 240 240 240 239 239 238 238 239 240 241 241 242 243 243 243
238 238 237 236 235 234 235 236 237 237 239 242 244 246 247 248 248 249 249 250 251 252 252 253 254 255 256 256 257 257 258 259 260 261 262 264 265 266 268 269 271 272 272 272 271 269 266 263 261 258 255 253 251 250 249 248 248 249 250 251 253 253 252 251 249 248 246 244 242 241 240 240 239 239 240 240 240 239 238 238 238 239 240 241 242 242
238 239 239 238 237 236 236 237 238 239 240 242 243 246 248 250 251 252 253 254 255 255 256 257 258 258 259 260 261 261 262 263 263 264 265 266 267 269 270 270 271 270 270 269 267 265 262 260 259 258 256 255 253 252 251 250 249 249 249 249 251 252 253 251 250 249 248 246 244 242 240 239 238 238 238 239 239 239 239 238 237 237 238 239 240 241
Height
10617 10623 10630 10636 10639 10640 10641 10642 10641 10642 10649 10657 10659 10661 10664 10665 10664 10664 10666 10668 10669 10669 10666 10666 10669 10671 10671 10672 10673 10673 10672 10673 10673 10672 10671 10670 10668 10667 10667 10668 10671 10673 10678 10681 10681 10681 10680 10681 10683 10686 10688 10691 10693 10695 10698 10702 10705 10708 10711 10713 10717 10719 10721 10724 10724 10723 10723 10722 10719 10718 10719 10720 10720 10718 10718 10719 10720 10723 10726 10726 10724 10724 10724 10723 10725 10726
10612 10620 10627 10628 10629 10630 10632 10633 10636 10643 10650 10654 10656 10657 10659 10658 10658 10659 10661 10663 10664 10664 10662 10660 10660 10663 10665 10665 10667 10668 10669 10670 10670 10668 10666 10665 10664 10663 10663 10664 10666 10669 10673 10675 10675 10675 10674 10675 10678 10681 10684 10687 10689 10690 10692 10695 10699 10702 10705 10708 10711 10713 10716 10719 10716 10713 10716 10717 10715 10713 10713 10713 10713 10714 10715 10717 10719 10722 10726 10726 10725 10725 10725 10724 10724 10724
10611 10618 10619 10617 10618 10622 10627 10630 10635 10642 10647 10651 10652 10652 10652 10652 10653 10654 10656 10658 10658 10658 10657 10654 10653 10654 10656 10659 10661 10664 10665 10665 10664 10662 10662 10661 10660 10660 10661 10662 10662 10664 10667 10668 10668 10668 10669 10670 10672 10676 10679 10681 10683 10685 10686 10689 10692 10695 10698 10701 10703 10705 10709 10710 10707 10707 10710 10710 10709 10708 10707 10706 10707 10709 10712 10714 10716 10721 10723 10723 10723 10725 10725 10724 10723 10722
10607 10607 10603 10605 10612 10620 10624 10626 10632 10639 10643 10647 10647 10646 10646 10647 10648 10649 10651 10653 10653 10653 10652 10650 10648 10646 10649 10653 10658 10659 10659 10658 10657 10657 10658 10658 10656 10656 10658 10658 10658 10658 10660 10661 10661 10662 10664 10665 10666 10669 10672 10675 10676 10679 10681 10683 10686 10688 10690 10692 10694 10697 10701 10703 10704 10705 10705 10704 10704 10704 10702 10700 10702 10706 10709 10711 10714 10717 10719 10719 10719 10721 10722 10722 10722 10721
10593 10589 10592 10602 10611 10617 10619 10621 10629 10636 10639 10641 10640 10640 10641 10641 10643 10644 10646 10649 10649 10649 10647 10646 10644 10642 10644 10648 10653 10655 10653 10653 10652 10653 10653 10652 10652 10652 10653 10654 10653 10653 10654 10654 10655 10656 10659 10660 10660 10663 10667 10668 10670 10672 10674 10676 10679 10680 10682 10684 10686 10689 10694 10697 10700 10700 10699 10699 10700 10699 10698 10697 10698 10703 10706 10708 10711 10713 10714 10714 10715 10716 10717 10718 10718 10718
10579 10583 10594 10603 10608 10613 10615 10618 10626 10631 10634 10635 10634 10634 10635 10635 10637 10640 10643 10645 10645 10644 10643 10642 10641 10640 10642 10643 10645 10649 10649 10648 10648 10648 10648 10647 10646 10648 10648 10649 10648 10648 10648 10649 10650 10651 10654 10655 10656 10659 10662 10664 10665 10667 10668 10670 10672 10673 10675 10676 10679 10683 10688 10692 10694 10696 10695 10695 10695 10694 10694 10693 10694 10699 10702 10704 10708 10711 10710 10709 10710 10711 10712 10713 10713 10713
10576 10585 10593 10598 10602 10607 10610 10614 10621 10626 10629 10630 10628 10627 10628 10630 10633 10636 10638 10640 10640 10639 10638 10638 10637 10639 10641 10638 10637 10641 10643 10643 10644 10644 10643 10642 10641 10642 10642 10642 10643 10644 10644 10645 10646 10647 10649 10650 10652 10654 10657 10658 10660 10661 10662 10663 10664 10666 10668 10671 10675 10679 10683 10686 10687 10690 10691 10690 10690 10690 10689 10689 10690 10694 10698 10700 10704 10708 10707 10705 10706 10707 10708 10709 10709 10710
10575 10583 10588 10593 10598 10603 10607 10611 10616 10621 10624 10624 10620 10619 10622 10624 10628 10632 10634 10636 10636 10635 10634 10633 10634 10636 10638 10636 10632 10635 10638 10639 10640 10640 10639 10638 10636 10636 10636 10636 10637 10639 10640 10641 10642 10642 10643 10644 10646 10648 10651 10652 10653 10654 10654 10654 10656 10658 10663 10669 10673 10674 10676 10678 10679 10682 10685 10685 10685 10685 10685 10685 10685 10687 10691 10695 10699 10703 10704 10703 10703 10704 10705 10705 10706 10707
10571 10576 10581 10588 10593 10599 10602 10605 10609 10614 10617 10616 10612 10613 10616 10620 10624 10628 10631 10631 10630 10630 10629 10629 10631 10632 10633 10633 10631 10632 10633 10634 10635 10635 10634 10633 10632 10631 10631 10631 10632 10633 10635 10636 10637 10637 10638 10639 10640 10642 10644 10645 10644 10645 10646 10647 10649 10653 10657 10662 10665 10666 10668 10671 10672 10674 10677 10679 10680 10680 10680 10680 10680 10682 10685 10689 10693 10697 10699 10699 10700 10701 10701 10702 10703 10705
10565 10569 10575 10583 10588 10592 10594 10597 10603 10608 10610 10608 10607 10608 10612 10615 10620 10625 10626 10626 10626 10624 10625 10626 10626 10626 10628 10630 10631 10630 10630 10630 10630 10630 10629 10628 10627 10626 10626 10626 10626 10627 10628 10630 10631 10632 10633 10633 10634 10635 10637 10637 10636 10637 10640 10642 10644 10647 10650 10653 10656 10659 10662 10665 10667 10668 10670 10673 10676 10677 10677 10676 10676 10678 10681 10684 10688 10692 10694 10694 10695 10696 10697 10699 10700 10702
10561 10565 10574 10581 10584 10586 10588 10594 10599 10602 10603 10603 10604 10604 10607 10611 10617 10620 10621 10621 10621 10619 10620 10621 10621 10622 10625 10627 10628 10627 10626 10626 10627 10627 10625 10623 10622 10622 10622 10621 10621 10621 10621 10622 10624 10626 10627 10627 10627 10627 10628 10629 10630 10632 10635 10637 10639 10641 10643 10646 10650 10653 10656 10658 10660 10661 10663 10666 10671 10673 10674 10674 10673 10675 10678 10681 10683 10687 10689 10690 10691 10692 10692 10694 10697 10699
10558 10565 10573 10576 10578 10581 10585 10591 10595 10597 10599 10600 10600 10600 10603 10608 10612 10614 10615 10615 10615 10615 10615 10616 10616 10619 10622 10624 10624 10622 10621 10621 10623 10623 10621 10619 10619 10618 10617 10617 10616 10616 10614 10614 10615 10618 10620 10620 10620 10620 10619 10621 10623 10626 10628 10630 10633 10635 10636 10640 10644 10647 10650 10652 10654 10655 10657 10660 10664 10668 10670 10672 10673 10674 10676 10678 10680 10682 10684 10686 10687 10688 10689 10691 10693 10695
10556 10562 10566 10568 10571 10575 10581 10586 10590 10592 10595 10596 10596 10596 10599 10604 10607 10609 10610 10610 10610 10610 10610 10610 10612 10616 10620 10621 10619 10617 10616 10616 10617 10619 10617 10615 10615 10614 10613 10613 10612 10611 10610 10608 10608 10610 10612 10612 10612 10612 10611 10613 10616 10618 10620 10623 10626 10629 10630 10633 10637 10641 10644 10645 10647 10649 10651 10654 10658 10662 10665 10669 10674 10675 10675 10674 10676 10678 10680 10682 10683 10685 10687 10688 10690 10691
10551 10556 10559 10563 10567 10572 10577 10581 10584 10587 10588 10589 10589 10591 10595 10599 10602 10604 10605 10605 10605 10605 10605 10606 10610 10613 10616 10616 10614 10613 10612 10610 10612 10614 10612 10611 10611 10610 10609 10608 10607 10607 10605 10603 10601 10602 10603 10604 10604 10604 10603 10605 10608 10609 10612 10616 10620 10623 10625 10627 10631 10635 10637 10639 10642 10645 10646 10650 10654 10657 10661 10666 10672 10675 10674 10670 10670 10673 10675 10678 10680 10682 10684 10686 10687 10688
10545 10550 10554 10557 10562 10567 10572 10575 10577 10578 10579 10580 10584 10588 10591 10594 10597 10599 10599 10600 10600 10600 10601 10604 10606 10609 10611 10610 10608 10608 10607 10604 10605 10606 10606 10605 10605 10605 10604 10603 10602 10601 10601 10598 10596 10595 10595 10596 10597 10597 10597 10599 10601 10604 10607 10611 10615 10618 10620 10623 10625 10628 10631 10634 10639 10643 10646 10649 10652 10655 10658 10663 10669 10674 10672 10666 10665 10669 10672 10674 10677 10678 10680 10682 10683 10684
10540 10545 10548 10552 10557 10562 10565 10567 10568 10569 10572 10576 10582 10586 10588 10590 10592 10593 10594 10595 10595 10595 10597 10601 10602 10604 10605 10604 10604 10604 10602 10599 10599 10598 10598 10598 10598 10598 10598 10597 10596 10595 10594 10593 10591 10589 10588 10588 10590 10590 10591 10593 10597 10601 10604 10605 10609 10614 10617 10619 10622 10624 10627 10630 10635 10640 10645 10648 10651 10654 10656 10660 10665 10669 10666 10661 10661 10665 10668 10671 10673 10674 10675 10677 10678 10680
10535 10539 10542 10547 10552 10555 10557 10558 10560 10563 10568 10574 10579 10582 10583 10585 10586 10587 10589 10590 10590 10591 10594 10597 10598 10598 10599 10599 10600 10599 10597 10594 10593 10592 10592 10591 10591 10591 10591 10590 10589 10588 10588 10587 10585 10583 10581 10581 10582 10583 10585 10588 10592 10597 10599 10600 10604 10611 10616 10618 10620 10621 10623 10627 10632 10637 10641 10645 10648 10650 10652 10655 10658 10661 10660 10657 10659 10662 10664 10667 10669 10670 10670 10672 10674 10674
10529 10533 10537 10543 10546 10547 10549 10552 10556 10561 10567 10572 10574 10575 10578 10580 10582 10583 10585 10585 10585 10586 10589 10591 10592 10593 10594 10595 10596 10595 10592 10590 10587 10586 10586 10585 10584 10584 10584 10584 10583 10581 10582 10581 10579 10578 10576 10575 10576 10578 10580 10583 10587 10590 10593 10596 10601 10608 10613 10617 10619 10620 10621 10625 10633 10638 10639 10640 10642 10643 10645 10649 10652 10654 10654 10654 10656 10658 10661 10663 10665 10665 10666 10668 10669 10669
10524 10527 10533 10538 10539 10541 10544 10549 10555 10560 10565 10568 10567 10569 10574 10576 10578 10579 10579 10580 10580 10581 10584 10586 10587 10588 10589 10590 10591 10591 10589 10586 10583 10581 10580 10579 10578 10578 10578 10578 10577 10575 10575 10575 10574 10572 10571 10569 10571 10574 10576 10578 10581 10585 10588 10592 10597 10602 10607 10612 10614 10614 10616 10623 10632 10638 10637 10635 10635 10637 10640 10644 10647 10649 10650 10652 10654 10656 10658 10659 10660 10661 10660 10662 10664 10664
10520 10524 10529 10531 10533 10537 10542 10548 10553 10557 10561 10562 10562 10566 10569 10570 10572 10573 10574 10575 10575 10576 10579 10581 10582 10583 10583 10584 10585 10585 10584 10582 10579 10577 10575 10574 10573 10572 10572 10572 10571 10570 10570 10569 10568 10567 10566 10565 10566 10569 10572 10574 10577 10580 10584 10589 10594 10599 10602 10604 10606 10608 10613 10621 10629 10632 10630 10629 10630 10633 10636 10640 10643 10646 10648 10650 10651 10652 10654 10655 10655 10655 10655 10657 10660 10660
10517 10521 10525 10527 10530 10535 10540 10545 10549 10552 10555 10556 10557 10560 10563 10564 10566 10567 10568 10570 10570 10572 10575 10576 10577 10577 10577 10577 10579 10580 10579 10577 10575 10572 10570 10569 10568 10567 10567 10567 10567 10565 10564 10563 10563 10562 10562 10561 10562 10565 10567 10570 10573 10577 10582 10586 10591 10595 10598 10600 10602 10604 10610 10617 10621 10621 10621 10624 10628 10630 10633 10637 10640 10643 10645 10646 10646 10647 10648 10649 10650 10650 10650 10652 10655 10656
10515 10518 10522 10524 10527 10533 10537 10540 10543 10546 10549 10551 10552 10555 10558 10559 10561 10562 10564 10565 10565 10567 10569 10570 10571 10571 10571 10572 10573 10573 10573 10572 10570 10568 10566 10565 10565 10564 10563 10563 10562 10560 10559 10558 10558 10558 10558 10557 10558 10560 10563 10566 10570 10574 10578 10583 10587 10591 10595 10596 10598 10600 10605 10609 10610 10612 10615 10620 10624 10629 10633 10635 10636 10638 10639 10639 10639 10640 10641 10643 10645 10645 10645 10647 10649 10651
10510 10514 10517 10519 10524 10530 10534 10535 10538 10541 10544 10547 10548 10551 10554 10555 10557 10558 10558 10558 10559 10561 10563 10565 10565 10566 10566 10566 10566 10567 10567 10566 10565 10563 10561 10562 10561 10561 10560 10558 10557 10555 10554 10554 10555 10555 10555 10554 10555 10557 10560 10563 10567 10571 10575 10579 10583 10588 10590 10591 10592 10594 10598 10601 10603 10605 10610 10615 10620 10627 10631 10631 10631 10631 10631 10631 10632 10633 10635 10637 10639 10640 10640 10642 10644 10644
10504 10508 10511 10514 10520 10526 10529 10530 10533 10537 10541 10543 10544 10546 10548 10549 10551 10552 10551 10552 10553 10555 10557 10558 10559 10559 10560 10559 10560 10560 10560 10560 10559 10557 10557 10557 10557 10556 10555 10554 10552 10550 10550 10551 10552 10552 10552 10552 10553 10554 10557 10560 10563 10567 10571 10575 10579 10583 10585 10585 10587 10589 10592 10595 10598 10601 10606 10611 10617 10622 10623 10624 10625 10624 10625 10629 10631 10631 10632 10633 10634 10634 10635 10637 10638 10638
10499 10503 10505 10508 10516 10522 10524 10526 10529 10533 10536 10538 10540 10541 10541 10542 10544 10545 10545 10546 10548 10549 10550 10551 10552 10553 10554 10554 10554 10554 10553 10553 10553 10552 10552 10552 10551 10551 10550 10549 10547 10546 10547 10548 10548 10549 10549 10549 10550 10551 10553 10557 10560 10563 10567 10571 10575 10578 10580 10581 10583 10585 10588 10591 10594 10598 10602 10607 10612 10615 10617 10619 10621 10621 10625 10630 10630 10629 10628 10628 10628 10627 10628 10630 10631 10632
10494 10498 10500 10505 10511 10516 10518 10520 10522 10525 10528 10531 10533 10533 10534 10535 10536 10538 10539 10540 10542 10544 10544 10545 10546 10548 10548 10548 10548 10547 10547 10547 10547 10547 10547 10546 10546 10545 10545 10544 10543 10543 10544 10545 10545 10546 10547 10547 10548 10549 10550 10553 10556 10559 10563 10567 10570 10573 10575 10576 10579 10582 10585 10588 10591 10594 10599 10603 10607 10611 10613 10616 10617 10617 10620 10624 10624 10624 10623 10622 10621 10619 10620 10624 10625 10626
10489 10492 10495 10499 10505 10509 10511 10513 10515 10517 10520 10522 10525 10527 10528 10529 10530 10532 10533 10535 10537 10538 10539 10540 10541 10542 10542 10542 10542 10542 10542 10542 10542 10542 10542 10541 10540 10540 10539 10539 10538 10539 10540 10542 10543 10544 10544 10545 10546 10547 10548 10550 10552 10555 10558 10562 10565 10567 10570 10572 10574 10577 10580 10584 10587 10591 10595 10599 10603 10606 10608 10610 10610 10611 10613 10616 10618 10619 10618 10616 10615 10612 10613 10617 10619 10620
10484 10486 10489 10493 10498 10502 10505 10507 10509 10512 10514 10516 10519 10522 10524 10525 10526 10528 10529 10531 10532 10533 10535 10536 10536 10536 10536 10536 10537 10537 10537 10537 10537 10537 10537 10537 10535 10534 10534 10533 10534 10535 10536 10538 10540 10541 10542 10543 10544 10545 10546 10547 10549 10551 10554 10557 10560 10563 10565 10568 10570 10573 10575 10579 10583 10587 10591 10595 10598 10600 10601 10602 10603 10606 10610 10612 10614 10614 10612 10611 10610 10608 10608 10610 10612 10614
10478 10480 10483 10487 10491 10495 10499 10502 10504 10507 10509 10511 10513 10516 10518 10520 10521 10523 10524 10526 10527 10528 10530 10531 10532 10532 10531 10531 10532 10533 10533 10533 10532 10533 10533 10532 10530 10529 10528 10528 10529 10530 10532 10535 10537 10538 10539 10540 10541 10542 10543 10545 10546 10548 10550 10553 10556 10559 10561 10564 10566 10568 10571 10574 10578 10581 10586 10590 10593 10595 10596 10596 10598 10602 10605 10607 10607 10608 10607 10606 10606 10605 10604 10604 10605 10608
10474 10476 10479 10481 10485 10489 10492 10495 10498 10500 10503 10506 10507 10508 10511 10513 10515 10517 10519 10520 10522 10523 10524 10526 10527 10527 10527 10527 10527 10528 10528 10528 10528 10528 10528 10527 10526 10524 10523 10523 10524 10526 10528 10531 10534 10535 10536 10537 10538 10540 10541 10542 10544 10545 10548 10550 10553 10555 10557 10559 10562 10564 10567 10570 10573 10577 10581 10585 10587 10589 10590 10591 10593 10596 10599 10600 10600 10602 10603 10602 10601 10601 10600 10598 10598 10600
10470 10473 10475 10478 10480 10483 10486 10489 10492 10494 10497 10500 10501 10503 10505 10507 10509 10512 10513 10514 10516 10518 10518 10520 10522 10522 10522 10522 10522 10523 10523 10523 10523 10523 10523 10522 10521 10519 10518 10518 10520 10522 10524 10527 10530 10531 10532 10534 10535 10536 10538 10539 10541 10543 10545 10547 10549 10551 10554 10556 10558 10560 10563 10566 10569 10572 10576 10580 10582 10583 10585 10586 10588 10591 10592 10593 10594 10596 10597 10597 10596 10596 10596 10595 10593 10594
10465 10468 10471 10473 10475 10477 10480 10483 10485 10488 10491 10494 10496 10498 10500 10501 10503 10505 10507 10508 10510 10511 10512 10514 10516 10516 10517 10517 10517 10517 10518 10519 10519 10518 10518 10518 10516 10515 10514 10514 10516 10518 10520 10522 10525 10527 10528 10530 10531 10532 10534 10536 10538 10539 10541 10543 10545 10547 10550 10552 10554 10556 10559 10562 10565 10568 10571 10574 10577 10579 10580 10583 10584 10586 10587 10588 10589 10591 10592 10592 10591 10590 10592 10592 10588 10588
10460 10463 10466 10468 10470 10472 10474 10476 10478 10482 10485 10488 10491 10493 10494 10495 10497 10498 10500 10502 10504 10505 10506 10509 10510 10511 10511 10512 10512 10512 10513 10514 10514 10513 10514 10514 10512 10511 10511 10511 10512 10513 10515 10517 10520 10522 10524 10525 10527 10528 10530 10532 10534 10535 10537 10539 10541 10543 10545 10548 10550 10552 10555 10557 10560 10563 10566 10569 10572 10574 10576 10578 10580 10582 10583 10584 10586 10587 10587 10587 10585 10586 10588 10587 10584 10583
10455 10458 10460 10463 10465 10467 10469 10470 10472 10474 10478 10483 10486 10487 10487 10488 10490 10492 10493 10495 10497 10499 10500 10503 10504 10505 10505 10506 10506 10507 10508 10509 10509 10508 10509 10509 10509 10508 10507 10507 10508 10508 10510 10512 10514 10517 10519 10521 10523 10525 10526 10528 10530 10531 10533 10535 10537 10539 10541 10543 10545 10548 10550 10553 10555 10558 10561 10564 10567 10569 10572 10574 10576 10578 10579 10581 10582 10583 10583 10582 10581 10581 10582 10582 10580 10579
10450 10452 10455 10458 10459 10460 10463 10465 10466 10468 10472 10476 10478 10479 10480 10482 10484 10485 10487 10488 10491 10493 10495 10496 10498 10499 10499 10500 10501 10502 10504 10505 10505 10504 10504 10505 10505 10505 10504 10504 10504 10504 10505 10507 10509 10511 10514 10516 10518 10520 10522 10524 10526 10527 10529 10531 10532 10534 10536 10538 10540 10543 10545 10548 10551 10553 10556 10559 10561 10564 10567 10569 10571 10573 10574 10576 10577 10578 10579 10578 10576 10577 10577 10577 10577 10576
10444 10447 10449 10452 10453 10454 10457 10460 10461 10462 10465 10467 10469 10472 10474 10476 10478 10480 10481 10483 10485 10487 10489 10490 10492 10493 10493 10494 10496 10497 10499 10500 10500 10499 10500 10500 10500 10499 10500 10500 10500 10500 10500 10501 10503 10505 10508 10510 10513 10515 10517 10519 10522 10523 10525 10527 10528 10529 10531 10534 10536 10538 10540 10543 10546 10548 10551 10554 10557 10560 10562 10565 10566 10567 10568 10570 10572 10573 10573 10572 10572 10572 10571 10571 10572 10572
10437 10439 10441 10444 10447 10449 10451 10453 10454 10456 10458 10460 10462 10465 10467 10469 10471 10473 10475 10477 10479 10481 10483 10484 10485 10487 10487 10489 10490 10492 10494 10495 10495 10494 10495 10495 10495 10494 10495 10495 10495 10496 10496 10497 10498 10500 10501 10504 10507 10509 10511 10514 10516 10518 10520 10521 10523 10525 10527 10529 10531 10533 10535 10538 10540 10543 10545 10549 10552 10555 10557 10559 10560 10560 10561 10564 10566 10567 10568 10567 10567 10567 10565 10565 10567 10567
10429 10431 10433 10436 10439 10443 10445 10447 10448 10449 10451 10454 10455 10456 10458 10461 10463 10466 10469 10472 10473 10475 10476 10477 10479 10480 10481 10483 10484 10487 10489 10489 10490 10489 10490 10490 10490 10490 10491 10491 10490 10491 10492 10493 10494 10495 10496 10498 10500 10503 10505 10508 10510 10512 10514 10516 10518 10520 10522 10523 10525 10527 10529 10532 10535 10537 10540 10544 10547 10549 10551 10553 10553 10554 10556 10559 10561 10562 10562 10562 10562 10561 10560 10560 10562 10562
10422 10424 10426 10429 10433 10436 10439 10440 10441 10442 10444 10447 10448 10449 10450 10453 10455 10459 10463 10466 10467 10468 10469 10470 10471 10473 10475 10476 10478 10481 10483 10484 10484 10484 10484 10485 10486 10486 10487 10486 10486 10486 10488 10489 10490 10490 10491 10492 10494 10496 10498 10501 10503 10506 10508 10510 10512 10514 10516 10517 10519 10521 10523 10526 10529 10531 10534 10538 10541 10544 10545 10546 10547 10549 10552 10554 10554 10555 10557 10557 10556 10556 10555 10555 10557 10556
10415 10417 10419 10423 10426 10429 10432 10433 10434 10435 10437 10439 10442 10443 10444 10446 10448 10452 10456 10458 10459 10461 10462 10463 10464 10466 10468 10470 10472 10474 10476 10477 10478 10479 10479 10480 10481 10482 10482 10482 10482 10482 10483 10483 10484 10485 10486 10486 10487 10489 10491 10494 10496 10498 10500 10503 10506 10508 10510 10512 10513 10515 10517 10520 10522 10525 10528 10531 10535 10538 10539 10540 10541 10544 10546 10547 10547 10549 10551 10551 10550 10550 10550 10550 10552 10551
10409 10410 10413 10416 10419 10422 10424 10426 10427 10428 10430 10433 10435 10437 10438 10440 10443 10446 10449 10450 10452 10454 10456 10456 10457 10459 10461 10463 10465 10467 10470 10471 10472 10473 10473 10474 10475 10476 10477 10478 10477 10478 10478 10478 10478 10479 10480 10481 10481 10483 10484 10486 10489 10491 10493 10496 10498 10501 10503 10505 10506 10508 10510 10513 10515 10517 10520 10524 10527 10531 10533 10534 10535 10537 10539 10541 10541 10542 10544 10544 10544 10544 10544 10544 10546 10546
10402 10405 10407 10410 10412 10414 10417 10419 10421 10422 10423 10426 10428 10430 10432 10435 10437 10439 10442 10443 10444 10447 10449 10450 10451 10453 10454 10456 10458 10460 10463 10464 10465 10467 10467 10468 10468 10469 10471 10472 10472 10472 10472 10472 10472 10473 10474 10474 10475 10477 10478 10480 10482 10483 10485 10488 10490 10492 10494 10497 10499 10500 10502 10505 10507 10510 10513 10515 10519 10523 10526 10528 10529 10530 10531 10533 10534 10535 10536 10536 10535 10536 10537 10537 10539 10540
10396 10399 10401 10404 10405 10407 10410 10412 10414 10415 10416 10418 10420 10423 10425 10429 10431 10433 10435 10436 10437 10439 10442 10444 10445 10446 10448 10450 10452 10454 10456 10457 10459 10460 10461 10462 10462 10463 10464 10465 10466 10466 10466 10466 10467 10467 10467 10468 10469 10470 10472 10473 10474 10475 10477 10480 10482 10483 10485 10488 10490 10492 10494 10496 10498 10501 10504 10507 10510 10514 10518 10520 10522 10523 10523 10525 10526 10527 10527 10527 10526 10527 10528 10529 10531 10531
10391 10393 10395 10397 10399 10401 10403 10405 10406 10407 10408 10411 10414 10416 10419 10423 10425 10427 10428 10430 10431 10433 10435 10437 10439 10441 10442 10444 10446 10447 10449 10450 10452 10453 10454 10455 10455 10456 10456 10458 10459 10459 10459 10460 10460 10461 10461 10461 10461 10462 10464 10465 10466 10467 10469 10471 10473 10474 10476 10478 10480 10482 10484 10487 10489 10492 10495 10498 10501 10505 10508 10512 10514 10515 10515 10515 10516 10517 10518 10518 10517 10518 10519 10520 10520 10520
10384 10386 10388 10390 10392 10394 10395 10397 10399 10401 10403 10406 10408 10410 10413 10416 10418 10420 10422 10423 10425 10427 10429 10430 10433 10435 10436 10438 10440 10441 10442 10443 10445 10445 10446 10447 10448 10449 10449 10450 10451 10452 10452 10452 10453 10453 10454 10454 10454 10455 10456 10457 10458 10459 10460 10462 10464 10466 10468 10469 10470 10472 10474 10477 10480 10483 10486 10489 10492 10495 10499 10502 10505 10506 10506 10506 10507 10507 10508 10509 10510 10510 10511 10511 10512 10512
10377 10379 10381 10384 10386 10388 10389 10391 10393 10396 10398 10400 10401 10404 10407 10409 10411 10414 10416 10418 10420 10422 10423 10425 10427 10429 10430 10432 10433 10435 10436 10437 10438 10438 10439 10439 10440 10441 10442 10442 10443 10443 10444 10444 10444 10445 10446 10446 10446 10447 10447 10448 10449 10450 10451 10453 10456 10458 10459 10459 10459 10461 10464 10468 10471 10474 10476 10479 10482 10486 10489 10492 10495 10497 10497 10497 10497 10497 10498 10499 10501 10502 10503 10503 10504 10505
10371 10373 10375 10377 10380 10382 10384 10386 10388 10390 10392 10394 10395 10398 10401 10404 10406 10408 10410 10412 10414 10416 10418 10419 10421 10423 10424 10426 10427 10428 10429 10430 10430 10431 10432 10432 10432 10433 10433 10434 10434 10434 10435 10435 10435 10435 10436 10437 10438 10438 10439 10439 10440 10441 10443 10445 10447 10448 10450 10450 10450 10452 10455 10457 10461 10464 10467 10470 10473 10476 10479 10482 10485 10488 10489 10488 10487 10488 10489 10490 10492 10493 10493 10494 10496 10496
10365 10367 10370 10372 10375 10378 10380 10381 10384 10386 10387 10389 10391 10393 10396 10399 10401 10403 10404 10406 10408 10410 10412 10413 10415 10417 10418 10419 10421 10422 10422 10422 10423 10423 10424 10424 10425 10425 10425 10425 10425 10426 10426 10426 10426 10426 10426 10427 10428 10428 10429 10430 10431 10432 10434 10436 10438 10439 10440 10440 10439 10441 10445 10448 10450 10454 10457 10461 10464 10466 10469 10472 10475 10478 10479 10478 10479 10480 10481 10481 10482 10483 10484 10485 10486 10487
10360 10362 10365 10368 10371 10374 10376 10377 10380 10381 10383 10385 10387 10389 10391 10394 10396 10397 10399 10401 10403 10404 10406 10407 10409 10410 10412 10413 10414 10415 10415 10415 10415 10416 10416 10416 10416 10416 10416 10416 10416 10416 10416 10416 10416 10417 10417 10417 10418 10418 10419 10420 10422 10423 10424 10427 10429 10430 10430 10430 10430 10432 10435 10438 10440 10443 10447 10450 10454 10456 10459 10461 10464 10467 10468 10469 10471 10472 10472 10472 10473 10474 10474 10475 10476 10478
10355 10358 10361 10364 10367 10370 10372 10373 10375 10377 10379 10381 10383 10385 10386 10388 10390 10392 10394 10395 10397 10398 10400 10401 10403 10404 10405 10406 10407 10407 10408 10408 10408 10408 10408 10408 10408 10408 10407 10407 10407 10407 10407 10407 10407 10407 10408 10408 10408 10409 10410 10411 10412 10413 10415 10417 10419 10420 10420 10421 10422 10423 10425 10428 10430 10432 10435 10438 10442 10445 10448 10450 10453 10455 10457 10458 10460 10462 10463 10464 10464 10464 10464 10465 10466 10468
10351 10353 10356 10359 10362 10365 10367 10369 10370 10372 10374 10376 10378 10380 10381 10383 10385 10386 10388 10389 10391 10392 10393 10395 10396 10397 10398 10398 10399 10399 10399 10400 10400 10400 10400 10400 10399 10399 10399 10399 10399 10399 10399 10398 10398 10398 10398 10399 10399 10399 10400 10401 10402 10403 10405 10407 10409 10410 10411 10412 10413 10414 10416 10418 10420 10421 10424 10426 10429 10433 10437 10439 10442 10444 10446 10447 10449 10450 10453 10454 10454 10454 10455 10456 10456 10457